When you browse on this site, cookies collect data to enhance your experience and personalize the content and advertising you see.
Visit our Privacy Policy to learn more. By continuing to use the site, you agree to this use of cookies and data.
  • In Germany
  • List of Countries
  • For 7 days
  • Water Temperature
  • Weather Map
  • Weather Widgets
  • user-avatar
    Login

    Hourly Weather Townsville

    Today, 16 September, Monday

    Time Temperature Precipitation Wind Pressure Humidity
    00:00 +18°C° 0 mm 3 mps 759 mmHg 87%
    01:00 +18°C° 0 mm 3 mps 758 mmHg 87%
    02:00 +18°C° 0 mm 3 mps 758 mmHg 87%
    03:00 +17°C° 0 mm 3 mps 758 mmHg 87%
    04:00 +17°C° 0 mm 3 mps 758 mmHg 87%
    05:00 +18°C° 0 mm 3 mps 759 mmHg 86%
    06:00 +18°C° 0 mm 3 mps 759 mmHg 85%
    07:00 +18°C° 0 mm 3 mps 759 mmHg 83%
    08:00 +20°C° 0 mm 4 mps 759 mmHg 74%
    09:00 +22°C° 0 mm 4 mps 759 mmHg 64%
    10:00 +25°C° 0 mm 5 mps 759 mmHg 54%
    11:00 +26°C° 0 mm 5 mps 759 mmHg 51%
    12:00 +27°C° 0 mm 5 mps 758 mmHg 48%
    13:00 +27°C° 0 mm 5 mps 757 mmHg 45%
    14:00 +27°C° 0 mm 5 mps 757 mmHg 46%
    15:00 +26°C° 0 mm 5 mps 757 mmHg 48%
    16:00 +26°C° 0 mm 5 mps 756 mmHg 50%
    17:00 +23°C° 0 mm 4 mps 756 mmHg 60%
    18:00 +21°C° 0 mm 3 mps 757 mmHg 71%
    19:00 +19°C° 0 mm 3 mps 757 mmHg 81%
    20:00 +18°C° 0 mm 2 mps 757 mmHg 83%
    21:00 +18°C° 0 mm 2 mps 758 mmHg 85%
    22:00 +17°C° 0 mm 2 mps 758 mmHg 87%
    23:00 +17°C° 0 mm 2 mps 758 mmHg 87%

    Tomorrow, 17 September, Tuesday

    Time Temperature Precipitation Wind Pressure Humidity
    00:00 +17°C° 0 mm 2 mps 757 mmHg 87%
    01:00 +17°C° 0 mm 2 mps 757 mmHg 87%
    02:00 +16°C° 0 mm 2 mps 757 mmHg 87%
    03:00 +16°C° 0 mm 1 mps 757 mmHg 86%
    04:00 +16°C° 0 mm 1 mps 757 mmHg 86%
    05:00 +18°C° 0 mm 1 mps 757 mmHg 84%
    06:00 +18°C° 0 mm 1 mps 757 mmHg 83%
    07:00 +19°C° 0 mm 1 mps 758 mmHg 81%
    08:00 +21°C° 0 mm 1 mps 758 mmHg 69%
    09:00 +24°C° 0 mm 2 mps 758 mmHg 58%
    10:00 +26°C° 0 mm 2 mps 758 mmHg 47%
    11:00 +27°C° 0 mm 2 mps 757 mmHg 45%
    12:00 +27°C° 0 mm 3 mps 756 mmHg 44%
    13:00 +28°C° 0 mm 3 mps 756 mmHg 43%
    14:00 +27°C° 0 mm 3 mps 756 mmHg 44%
    15:00 +27°C° 0 mm 3 mps 755 mmHg 45%
    16:00 +26°C° 0 mm 3 mps 755 mmHg 47%
    17:00 +24°C° 0 mm 3 mps 756 mmHg 55%
    18:00 +21°C° 0 mm 2 mps 756 mmHg 64%
    19:00 +19°C° 0 mm 2 mps 757 mmHg 73%
    20:00 +19°C° 0 mm 1 mps 757 mmHg 76%
    21:00 +19°C° 0 mm 1 mps 757 mmHg 78%
    22:00 +18°C° 0 mm 1 mps 758 mmHg 81%
    23:00 +18°C° 0 mm 1 mps 758 mmHg 82%

    Day after tomorrow, 18 September, Wednesday

    Time Temperature Precipitation Wind Pressure Humidity
    00:00 +18°C° 0 mm 1 mps 757 mmHg 82%
    01:00 +16°C° 0 mm 1 mps 757 mmHg 82%
    02:00 +16°C° 0 mm 1 mps 757 mmHg 83%
    03:00 +16°C° 0 mm 1 mps 757 mmHg 84%
    04:00 +16°C° 0 mm 1 mps 757 mmHg 85%
    05:00 +16°C° 0 mm 1 mps 757 mmHg 82%
    06:00 +18°C° 0 mm 1 mps 757 mmHg 78%
    07:00 +19°C° 0 mm 1 mps 758 mmHg 75%
    08:00 +22°C° 0 mm 1 mps 758 mmHg 62%
    09:00 +26°C° 0 mm 1 mps 758 mmHg 49%
    10:00 +29°C° 0 mm 1 mps 758 mmHg 36%
    11:00 +29°C° 0 mm 2 mps 757 mmHg 36%
    12:00 +29°C° 0 mm 2 mps 756 mmHg 36%
    13:00 +30°C° 0 mm 3 mps 756 mmHg 36%
    14:00 +29°C° 0 mm 3 mps 755 mmHg 40%
    15:00 +28°C° 0 mm 3 mps 755 mmHg 43%
    16:00 +27°C° 0 mm 3 mps 755 mmHg 47%
    17:00 +25°C° 0 mm 3 mps 755 mmHg 57%
    18:00 +22°C° 0 mm 3 mps 755 mmHg 67%
    19:00 +19°C° 0 mm 2 mps 756 mmHg 78%
    20:00 +19°C° 0 mm 2 mps 756 mmHg 80%
    21:00 +18°C° 0 mm 2 mps 757 mmHg 83%
    22:00 +19°C° 0 mm 1 mps 757 mmHg 85%
    23:00 +18°C° 0 mm 1 mps 757 mmHg 86%

    19 September, Thursday

    Time Temperature Precipitation Wind Pressure Humidity
    00:00 +18°C° 0 mm 1 mps 756 mmHg 87%
    01:00 +18°C° 0 mm 1 mps 756 mmHg 87%
    02:00 +18°C° 0 mm 1 mps 756 mmHg 88%
    03:00 +18°C° 0 mm 1 mps 756 mmHg 88%
    04:00 +18°C° 0 mm 1 mps 756 mmHg 88%
    05:00 +18°C° 0 mm 1 mps 756 mmHg 86%
    06:00 +19°C° 0 mm 1 mps 757 mmHg 84%
    07:00 +19°C° 0 mm 1 mps 757 mmHg 83%
    08:00 +22°C° 0 mm 1 mps 757 mmHg 72%
    09:00 +24°C° 0 mm 2 mps 757 mmHg 62%
    10:00 +27°C° 0 mm 2 mps 757 mmHg 51%
    11:00 +27°C° 0 mm 3 mps 757 mmHg 51%
    12:00 +28°C° 0 mm 3 mps 756 mmHg 51%
    13:00 +28°C° 0 mm 4 mps 755 mmHg 51%
    14:00 +27°C° 0 mm 4 mps 755 mmHg 53%
    15:00 +27°C° 0 mm 4 mps 755 mmHg 54%
    16:00 +27°C° 0 mm 4 mps 755 mmHg 56%
    17:00 +25°C° 0 mm 3 mps 755 mmHg 66%
    18:00 +22°C° 0 mm 3 mps 755 mmHg 76%
    19:00 +20°C° 0 mm 3 mps 756 mmHg 86%
    20:00 +20°C° 0 mm 3 mps 756 mmHg 87%
    21:00 +19°C° 0 mm 3 mps 757 mmHg 89%
    22:00 +19°C° 0 mm 3 mps 757 mmHg 90%
    23:00 +19°C° 0 mm 3 mps 757 mmHg 90%

    20 September, Friday

    Time Temperature Precipitation Wind Pressure Humidity
    00:00 +19°C° 0 mm 3 mps 756 mmHg 90%
    01:00 +19°C° 0 mm 2 mps 756 mmHg 89%
    02:00 +19°C° 0 mm 3 mps 756 mmHg 90%
    03:00 +19°C° 0 mm 3 mps 756 mmHg 90%
    04:00 +19°C° 0 mm 3 mps 756 mmHg 90%
    05:00 +20°C° 0 mm 4 mps 756 mmHg 88%
    06:00 +20°C° 0 mm 4 mps 757 mmHg 85%
    07:00 +21°C° 0 mm 4 mps 757 mmHg 83%
    08:00 +22°C° 0 mm 4 mps 757 mmHg 74%
    09:00 +25°C° 0 mm 5 mps 757 mmHg 65%
    10:00 +26°C° 0 mm 5 mps 757 mmHg 56%
    11:00 +27°C° 0 mm 5 mps 757 mmHg 53%
    12:00 +28°C° 0 mm 5 mps 756 mmHg 50%
    13:00 +28°C° 0 mm 5 mps 756 mmHg 48%
    14:00 +28°C° 0 mm 5 mps 756 mmHg 50%
    15:00 +27°C° 0 mm 5 mps 755 mmHg 51%
    16:00 +27°C° 0 mm 5 mps 755 mmHg 53%
    17:00 +25°C° 0 mm 4 mps 755 mmHg 63%
    18:00 +22°C° 0 mm 4 mps 756 mmHg 73%
    19:00 +20°C° 0 mm 3 mps 756 mmHg 84%
    20:00 +19°C° 0.1 mm 3 mps 756 mmHg 86%
    21:00 +19°C° 0.1 mm 3 mps 757 mmHg 88%
    22:00 +19°C° 0.1 mm 4 mps 757 mmHg 91%
    23:00 +19°C° 0 mm 4 mps 757 mmHg 90%

    21 September, Saturday

    Time Temperature Precipitation Wind Pressure Humidity
    00:00 +19°C° 0 mm 4 mps 757 mmHg 90%
    01:00 +18°C° 0 mm 4 mps 756 mmHg 90%
    02:00 +18°C° 0 mm 3 mps 756 mmHg 90%
    03:00 +18°C° 0 mm 3 mps 756 mmHg 90%
    04:00 +18°C° 0 mm 3 mps 756 mmHg 90%
    05:00 +18°C° 0 mm 3 mps 756 mmHg 88%
    06:00 +18°C° 0 mm 3 mps 757 mmHg 85%
    07:00 +19°C° 0 mm 3 mps 757 mmHg 83%
    08:00 +21°C° 0 mm 3 mps 757 mmHg 74%
    09:00 +23°C° 0 mm 4 mps 757 mmHg 65%
    10:00 +27°C° 0 mm 5 mps 757 mmHg 56%
    11:00 +27°C° 0 mm 5 mps 757 mmHg 54%
    12:00 +28°C° 0 mm 5 mps 756 mmHg 51%
    13:00 +28°C° 0 mm 6 mps 755 mmHg 49%
    14:00 +28°C° 0 mm 5 mps 755 mmHg 50%
    15:00 +27°C° 0 mm 5 mps 755 mmHg 51%
    16:00 +26°C° 0 mm 5 mps 755 mmHg 52%
    17:00 +25°C° 0 mm 5 mps 755 mmHg 62%
    18:00 +22°C° 0 mm 4 mps 756 mmHg 71%
    19:00 +20°C° 0 mm 3 mps 756 mmHg 81%
    20:00 +20°C° 0 mm 3 mps 757 mmHg 84%
    21:00 +19°C° 0 mm 3 mps 757 mmHg 86%
    22:00 +19°C° 0 mm 3 mps 758 mmHg 89%
    23:00 +19°C° 0 mm 3 mps 758 mmHg 89%
    Show more